Location: Marcé
(47.5801°N, 0.3280°W)
Time: 11:48:35
(UTC+01:00)

DMSP 5D-2 F11 DEB - Visible Passes

Search period start: 28 November 2023 00:00
Search period end: 08 December 2023 00:00
Orbit: 748 x 922 km, 98.7° (Epoch: 27 November)

Date Brightness Start Highest point End Pass type
(mag) Time Alt. Az. Time Alt. Az. Time Alt. Az.
01 Dec ? 18:04:56 10° NNW 18:07:18 13° NW 18:09:37 10° WNW visible
02 Dec ? 17:47:38 10° NNW 17:51:03 16° NW 17:54:24 10° W visible
07 Dec ? 18:05:55 10° NNW 18:07:59 12° NW 18:10:00 10° WNW visible
